LGX37B GMMI-LPMA

Flight info

Callsign LGX37B
Flight time 1h 3m
Altitude 32000
Route ROLRO DCT TOVRA DCT DIMSA DCT LEPRU DCT EKNOT
Aircraft B38M/M-SDE1FGHILORVWXY/HB1

Departure

Time 2026-04-26 13:24
Airport Essaouira-Mogador Airport (GMMI)

Arrival

Time 2026-04-26 14:27
Airport Cristiano Ronaldo International Airport (LPMA)
Time Latitude Longitude Altitude Speed Heading
2026-04-26 13:12 31.40360 -9.68725 392 ft 0 kts 158°
2026-04-26 13:20 31.40360 -9.68723 392 ft 1 kts 147°
2026-04-26 13:20 31.40360 -9.68716 392 ft 1 kts 84°
2026-04-26 13:20 31.40398 -9.68711 392 ft 11 kts 348°
2026-04-26 13:21 31.40476 -9.68743 393 ft 12 kts 347°
2026-04-26 13:21 31.40527 -9.68730 393 ft 11 kts 44°
2026-04-26 13:21 31.40549 -9.68605 394 ft 18 kts 123°
2026-04-26 13:21 31.40385 -9.68516 393 ft 35 kts 159°
2026-04-26 13:22 31.40112 -9.68391 392 ft 50 kts 159°
2026-04-26 13:22 31.39752 -9.68227 396 ft 62 kts 159°
2026-04-26 13:22 31.39343 -9.68036 395 ft 61 kts 159°
2026-04-26 13:22 31.38984 -9.67871 394 ft 45 kts 159°
2026-04-26 13:23 31.38844 -9.67807 396 ft 11 kts 51°
2026-04-26 13:23 31.38897 -9.67834 394 ft 18 kts 338°
2026-04-26 13:23 31.39235 -9.67983 392 ft 88 kts 339°
2026-04-26 13:23 31.40007 -9.68335 433 ft 145 kts 340°
2026-04-26 13:24 31.40962 -9.68770 1188 ft 144 kts 340°
2026-04-26 13:24 31.41851 -9.69301 2052 ft 152 kts 326°
2026-04-26 13:24 31.42407 -9.70420 2702 ft 169 kts 291°
2026-04-26 13:24 31.42705 -9.71826 3321 ft 185 kts 284°
2026-04-26 13:25 31.42967 -9.73346 3918 ft 201 kts 283°
2026-04-26 13:25 31.43264 -9.75019 4563 ft 219 kts 283°
2026-04-26 13:25 31.43608 -9.76820 5342 ft 236 kts 284°
2026-04-26 13:25 31.43996 -9.78760 6098 ft 252 kts 284°
2026-04-26 13:26 31.44412 -9.80828 6835 ft 270 kts 284°
2026-04-26 13:26 31.44855 -9.83040 7582 ft 286 kts 283°
2026-04-26 13:26 31.45315 -9.85345 8524 ft 294 kts 283°
2026-04-26 13:26 31.45780 -9.87698 9488 ft 299 kts 282°
2026-04-26 13:27 31.46255 -9.90104 10346 ft 309 kts 282°
2026-04-26 13:27 31.46753 -9.92630 10907 ft 327 kts 282°
2026-04-26 13:27 31.47281 -9.95289 11436 ft 344 kts 282°
2026-04-26 13:27 31.47835 -9.98085 11907 ft 361 kts 282°
2026-04-26 13:28 31.48406 -10.00970 12557 ft 371 kts 282°
2026-04-26 13:28 31.48994 -10.03946 13375 ft 376 kts 282°
2026-04-26 13:28 31.49588 -10.06958 14189 ft 381 kts 282°
2026-04-26 13:28 31.50188 -10.10002 14975 ft 386 kts 282°
2026-04-26 13:29 31.50793 -10.13087 15695 ft 390 kts 282°
2026-04-26 13:29 31.51196 -10.15146 16161 ft 393 kts 282°
2026-04-26 13:29 31.52022 -10.19351 17051 ft 399 kts 282°
2026-04-26 13:29 31.52648 -10.22548 17695 ft 403 kts 282°
2026-04-26 13:30 31.53277 -10.25760 18309 ft 406 kts 282°
2026-04-26 13:30 31.53910 -10.29002 18897 ft 410 kts 282°
2026-04-26 13:30 31.54547 -10.32272 19487 ft 413 kts 282°
2026-04-26 13:30 31.55189 -10.35569 20056 ft 417 kts 282°
2026-04-26 13:31 31.55838 -10.38898 20625 ft 420 kts 282°
2026-04-26 13:31 31.56479 -10.42207 21153 ft 423 kts 282°
2026-04-26 13:31 31.57132 -10.45583 21689 ft 425 kts 282°
2026-04-26 13:31 31.57788 -10.48976 22198 ft 428 kts 282°
2026-04-26 13:32 31.58449 -10.52392 22701 ft 431 kts 282°
2026-04-26 13:32 31.59113 -10.55832 23193 ft 434 kts 281°
2026-04-26 13:32 31.59780 -10.59295 23671 ft 437 kts 281°
2026-04-26 13:32 31.60451 -10.62785 24142 ft 439 kts 281°
2026-04-26 13:33 31.61125 -10.66290 24600 ft 442 kts 281°
2026-04-26 13:33 31.61800 -10.69818 25045 ft 445 kts 281°
2026-04-26 13:33 31.62251 -10.72178 25337 ft 446 kts 281°
2026-04-26 13:33 31.63163 -10.76950 25897 ft 450 kts 281°
2026-04-26 13:34 31.63618 -10.79327 26180 ft 452 kts 281°
2026-04-26 13:34 31.64307 -10.82939 26566 ft 454 kts 281°
2026-04-26 13:34 31.64999 -10.86571 26946 ft 457 kts 281°
2026-04-26 13:34 31.65457 -10.88983 27195 ft 458 kts 281°
2026-04-26 13:35 31.66384 -10.93882 27678 ft 461 kts 281°
2026-04-26 13:35 31.67159 -10.97543 28018 ft 464 kts 286°
2026-04-26 13:35 31.68139 -11.01161 28357 ft 467 kts 286°
2026-04-26 13:35 31.69131 -11.04803 28686 ft 469 kts 286°
2026-04-26 13:36 31.70132 -11.08455 29007 ft 471 kts 287°
2026-04-26 13:36 31.71128 -11.12081 29313 ft 473 kts 287°
2026-04-26 13:36 31.72135 -11.15762 29707 ft 473 kts 286°
2026-04-26 13:36 31.73135 -11.19435 30115 ft 472 kts 286°
2026-04-26 13:37 31.74130 -11.23105 30527 ft 471 kts 286°
2026-04-26 13:37 31.75122 -11.26769 30937 ft 470 kts 286°
2026-04-26 13:37 31.76055 -11.30450 31347 ft 468 kts 283°
2026-04-26 13:37 31.76812 -11.34162 31748 ft 467 kts 280°
2026-04-26 13:38 31.77455 -11.37907 31914 ft 470 kts 279°
2026-04-26 13:38 31.78841 -11.45457 31929 ft 474 kts 282°
2026-04-26 13:39 31.80409 -11.52979 31945 ft 474 kts 282°
2026-04-26 13:39 31.81892 -11.60536 31945 ft 474 kts 281°
2026-04-26 13:40 31.83346 -11.68089 31947 ft 473 kts 281°
2026-04-26 13:40 31.84836 -11.75632 31947 ft 473 kts 281°
2026-04-26 13:41 31.86310 -11.83192 31956 ft 474 kts 281°
2026-04-26 13:41 31.87775 -11.90764 31952 ft 474 kts 281°
2026-04-26 13:42 31.89233 -11.98280 31953 ft 474 kts 281°
2026-04-26 13:42 31.90695 -12.05856 31954 ft 474 kts 281°
2026-04-26 13:43 31.92150 -12.13440 31957 ft 475 kts 281°
2026-04-26 13:43 31.93603 -12.21013 31961 ft 474 kts 281°
2026-04-26 13:44 31.95048 -12.28585 31965 ft 474 kts 281°
2026-04-26 13:44 31.96487 -12.36159 31964 ft 473 kts 281°
2026-04-26 13:45 31.97276 -12.43798 31978 ft 470 kts 270°
2026-04-26 13:45 31.97454 -12.51448 31976 ft 469 kts 270°
2026-04-26 13:46 31.97579 -12.59126 31975 ft 468 kts 270°
2026-04-26 13:46 31.97732 -12.66805 31980 ft 468 kts 270°
2026-04-26 13:47 31.97881 -12.74472 31988 ft 467 kts 270°
2026-04-26 13:47 31.98016 -12.82112 31990 ft 466 kts 270°
2026-04-26 13:48 31.98149 -12.89717 31996 ft 466 kts 270°
2026-04-26 13:48 31.98279 -12.97349 31995 ft 465 kts 269°
2026-04-26 13:49 31.98403 -13.04966 32001 ft 465 kts 269°
2026-04-26 13:49 31.98524 -13.12575 32002 ft 464 kts 269°
2026-04-26 13:50 31.98636 -13.20197 32003 ft 465 kts 269°
2026-04-26 13:50 31.98746 -13.27765 32010 ft 464 kts 269°
2026-04-26 13:51 31.98854 -13.35369 32011 ft 464 kts 269°
2026-04-26 13:51 31.98955 -13.42961 32014 ft 464 kts 269°
2026-04-26 13:52 31.99050 -13.50583 32021 ft 465 kts 269°
2026-04-26 13:52 31.99142 -13.58209 32021 ft 465 kts 269°
2026-04-26 13:53 31.99232 -13.65827 32034 ft 465 kts 269°
2026-04-26 13:53 31.99314 -13.73386 32053 ft 465 kts 269°
2026-04-26 13:54 31.99393 -13.80998 32057 ft 465 kts 269°
2026-04-26 13:54 31.99467 -13.88619 32058 ft 464 kts 269°
2026-04-26 13:55 31.99558 -13.98748 32078 ft 464 kts 269°
2026-04-26 13:56 31.99662 -14.11462 32085 ft 464 kts 269°
2026-04-26 13:56 31.99716 -14.19023 32086 ft 464 kts 269°
2026-04-26 13:57 31.99770 -14.26643 32087 ft 464 kts 269°
2026-04-26 13:57 31.99815 -14.34237 32094 ft 464 kts 269°
2026-04-26 13:58 31.99855 -14.41826 32095 ft 463 kts 269°
2026-04-26 13:58 31.99895 -14.49413 32094 ft 463 kts 269°
2026-04-26 13:59 31.99927 -14.56951 32095 ft 462 kts 269°
2026-04-26 13:59 31.99956 -14.64562 32098 ft 462 kts 269°
2026-04-26 14:00 32.00030 -14.79612 32100 ft 461 kts 272°
2026-04-26 14:01 32.00856 -14.87119 32114 ft 464 kts 277°
2026-04-26 14:01 32.01795 -14.94660 32110 ft 466 kts 277°
2026-04-26 14:02 32.02731 -15.02205 32113 ft 465 kts 277°
2026-04-26 14:02 32.03640 -15.09729 32108 ft 463 kts 276°
2026-04-26 14:03 32.04553 -15.17249 32108 ft 462 kts 276°
2026-04-26 14:03 32.05460 -15.24739 32109 ft 461 kts 276°
2026-04-26 14:04 32.06351 -15.32177 32113 ft 461 kts 276°
2026-04-26 14:04 32.07246 -15.39647 32123 ft 459 kts 276°
2026-04-26 14:05 32.08131 -15.47106 32121 ft 460 kts 276°
2026-04-26 14:05 32.09017 -15.54579 32126 ft 458 kts 276°
2026-04-26 14:06 32.09895 -15.62019 32122 ft 458 kts 276°
2026-04-26 14:06 32.10758 -15.69413 32121 ft 456 kts 276°
2026-04-26 14:07 32.11624 -15.76839 32127 ft 457 kts 276°
2026-04-26 14:07 32.12485 -15.84261 32128 ft 457 kts 276°
2026-04-26 14:08 32.13339 -15.91675 32131 ft 455 kts 276°
2026-04-26 14:08 32.14183 -15.99031 31440 ft 448 kts 276°
2026-04-26 14:08 32.14600 -16.02680 30471 ft 449 kts 276°
2026-04-26 14:09 32.15018 -16.06347 29406 ft 451 kts 276°
2026-04-26 14:09 32.15436 -16.10027 28258 ft 454 kts 276°
2026-04-26 14:09 32.15850 -16.13679 26940 ft 451 kts 277°
2026-04-26 14:09 32.16266 -16.17365 25021 ft 457 kts 277°
2026-04-26 14:10 32.16703 -16.21064 23954 ft 453 kts 280°
2026-04-26 14:10 32.17661 -16.24590 22898 ft 451 kts 294°
2026-04-26 14:10 32.19316 -16.27701 21900 ft 447 kts 309°
2026-04-26 14:10 32.21588 -16.30168 20906 ft 442 kts 325°
2026-04-26 14:11 32.27188 -16.32829 18991 ft 431 kts 344°
2026-04-26 14:11 32.30058 -16.33769 18033 ft 424 kts 345°
2026-04-26 14:11 32.32885 -16.34670 17109 ft 418 kts 345°
2026-04-26 14:12 32.35666 -16.35576 16180 ft 412 kts 345°
2026-04-26 14:12 32.38405 -16.36496 15254 ft 407 kts 345°
2026-04-26 14:12 32.41115 -16.37419 14341 ft 402 kts 345°
2026-04-26 14:12 32.43785 -16.38325 13431 ft 397 kts 345°
2026-04-26 14:13 32.49035 -16.40082 11618 ft 387 kts 345°
2026-04-26 14:13 32.51613 -16.40943 10734 ft 382 kts 346°
2026-04-26 14:13 32.54154 -16.41796 9838 ft 378 kts 346°
2026-04-26 14:14 32.56644 -16.42634 9366 ft 363 kts 346°
2026-04-26 14:14 32.59020 -16.43437 9039 ft 347 kts 346°
2026-04-26 14:14 32.61261 -16.44192 8779 ft 332 kts 346°
2026-04-26 14:14 32.63428 -16.44922 8565 ft 316 kts 346°
2026-04-26 14:15 32.65494 -16.45616 8431 ft 301 kts 346°
2026-04-26 14:15 32.67463 -16.46280 8337 ft 287 kts 347°
2026-04-26 14:15 32.69335 -16.46908 8211 ft 274 kts 347°
2026-04-26 14:15 32.71154 -16.47520 7911 ft 269 kts 347°
2026-04-26 14:16 32.72952 -16.48125 7559 ft 267 kts 347°
2026-04-26 14:16 32.74733 -16.48726 7200 ft 265 kts 347°
2026-04-26 14:16 32.76511 -16.49325 6856 ft 264 kts 347°
2026-04-26 14:16 32.78242 -16.50043 6516 ft 264 kts 335°
2026-04-26 14:17 32.79731 -16.51320 6185 ft 266 kts 317°
2026-04-26 14:17 32.80960 -16.52958 5820 ft 265 kts 314°
2026-04-26 14:17 32.82147 -16.54602 5658 ft 257 kts 313°
2026-04-26 14:17 32.83295 -16.56203 5404 ft 252 kts 313°
2026-04-26 14:18 32.84172 -16.57969 5113 ft 255 kts 289°
2026-04-26 14:18 32.84220 -16.60086 4778 ft 260 kts 257°
2026-04-26 14:18 32.83382 -16.61955 4592 ft 256 kts 229°
2026-04-26 14:18 32.82023 -16.63196 4546 ft 244 kts 204°
2026-04-26 14:19 32.80403 -16.63832 4167 ft 247 kts 193°
2026-04-26 14:19 32.78767 -16.64339 3723 ft 237 kts 194°
2026-04-26 14:19 32.77256 -16.64871 3496 ft 211 kts 197°
2026-04-26 14:19 32.75939 -16.65413 3212 ft 196 kts 199°
2026-04-26 14:20 32.74684 -16.65969 2839 ft 186 kts 201°
2026-04-26 14:20 32.73520 -16.66462 2615 ft 170 kts 198°
2026-04-26 14:20 32.72417 -16.66850 2429 ft 152 kts 195°
2026-04-26 14:20 32.71428 -16.67160 2074 ft 151 kts 193°
2026-04-26 14:21 32.70417 -16.67441 1714 ft 147 kts 192°
2026-04-26 14:21 32.69429 -16.67695 1517 ft 158 kts 188°
2026-04-26 14:21 32.68309 -16.68028 1554 ft 160 kts 199°
2026-04-26 14:21 32.67329 -16.68577 1348 ft 160 kts 213°
2026-04-26 14:22 32.66721 -16.69074 1149 ft 158 kts 219°
2026-04-26 14:22 32.65836 -16.69890 1109 ft 159 kts 220°
2026-04-26 14:22 32.64997 -16.70652 1152 ft 151 kts 221°
2026-04-26 14:22 32.64240 -16.71480 1268 ft 152 kts 231°
2026-04-26 14:23 32.63550 -16.72499 1232 ft 162 kts 236°
2026-04-26 14:23 32.62899 -16.73579 1305 ft 156 kts 241°
2026-04-26 14:23 32.62359 -16.74661 1538 ft 150 kts 246°
2026-04-26 14:23 32.61886 -16.75802 1686 ft 157 kts 250°
2026-04-26 14:24 32.61427 -16.77008 1737 ft 162 kts 252°
2026-04-26 14:24 32.61240 -16.78291 1469 ft 152 kts 276°
2026-04-26 14:24 32.61480 -16.79438 1169 ft 143 kts 303°
2026-04-26 14:24 32.62109 -16.80284 1235 ft 132 kts 326°
2026-04-26 14:25 32.62877 -16.80848 1281 ft 128 kts 341°
2026-04-26 14:25 32.63718 -16.81130 1358 ft 124 kts 351°
2026-04-26 14:25 32.64575 -16.81156 1376 ft 126 kts
2026-04-26 14:25 32.65450 -16.80966 1311 ft 132 kts 15°
2026-04-26 14:26 32.66370 -16.80626 1095 ft 142 kts 20°
2026-04-26 14:26 32.67247 -16.80128 849 ft 137 kts 30°
2026-04-26 14:26 32.68001 -16.79453 527 ft 131 kts 40°
2026-04-26 14:26 32.68648 -16.78748 308 ft 124 kts 38°
2026-04-26 14:27 32.69270 -16.78051 178 ft 116 kts 43°
2026-04-26 14:27 32.69742 -16.77507 176 ft 69 kts 44°
2026-04-26 14:27 32.69950 -16.77219 176 ft 22 kts 101°
2026-04-26 14:27 32.69879 -16.77178 176 ft 8 kts 179°
2026-04-26 14:28 32.69820 -16.77204 176 ft 12 kts 218°
2026-04-26 14:28 32.69753 -16.77283 176 ft 14 kts 225°
2026-04-26 14:28 32.69681 -16.77374 176 ft 16 kts 226°
2026-04-26 14:28 32.69602 -16.77471 176 ft 17 kts 226°
2026-04-26 14:29 32.69531 -16.77520 176 ft 10 kts 151°
2026-04-26 14:29 32.69487 -16.77480 176 ft 0 kts 139°